This is the latest recevied weather packets stored in our database for station/object EA3KZ-1. If no packets are shown the sender has not sent any weather packets the latest 10 day(s).
| Time | Temp. | Humidity | Pressure | Rain* | Wind** | Luminosity | Snow |
|---|---|---|---|---|---|---|---|
| 1777671642 | 15° C | 84% | 1020 hPa | 0 mm | - | - | - |
| 1777671040 | 15° C | 87% | 1020 hPa | 0 mm | - | - | - |
| 1777670437 | 14.44° C | 88% | 1020 hPa | 0 mm | - | - | - |
| 1777669835 | 15° C | 87% | 1019.9 hPa | 0 mm | - | - | - |
| 1777669232 | 15° C | 87% | 1020 hPa | 0 mm | - | - | - |
| 1777668629 | 15° C | 87% | 1020.1 hPa | 0 mm | - | - | - |
| 1777668027 | 15° C | 87% | 1020 hPa | 0 mm | - | - | - |
| 1777667424 | 15° C | 87% | 1019.9 hPa | 0 mm | - | - | - |
| 1777666822 | 15° C | 87% | 1019.8 hPa | 0 mm | - | - | - |
| 1777666219 | 15° C | 87% | 1019.7 hPa | 0 mm | - | - | - |
| 1777665616 | 15.56° C | 87% | 1019.7 hPa | 0 mm | - | - | - |
| 1777665074 | 15.56° C | 87% | 1019.6 hPa | 0 mm | - | - | - |
| 1777664471 | 15.56° C | 86% | 1019.5 hPa | 0 mm | - | - | - |
| 1777663868 | 15.56° C | 86% | 1019.4 hPa | 0 mm | - | - | - |
| 1777663266 | 15.56° C | 86% | 1019.3 hPa | 0 mm | - | - | - |
| 1777662663 | 15.56° C | 85% | 1019.2 hPa | 0 mm | - | - | - |
| 1777662061 | 15.56° C | 84% | 1019.1 hPa | 0 mm | - | - | - |
| 1777661458 | 16.11° C | 82% | 1018.9 hPa | 0 mm | - | - | - |
| 1777660855 | 16.11° C | 80% | 1018.9 hPa | 0 mm | - | - | - |
| 1777660253 | 16.67° C | 80% | 1018.8 hPa | 0 mm | - | - | - |
| 1777659650 | 16.67° C | 78% | 1018.5 hPa | 0 mm | - | - | - |
| 1777659048 | 17.22° C | 77% | 1018.3 hPa | 0 mm | - | - | - |
| 1777658445 | 17.22° C | 76% | 1018.2 hPa | 0 mm | - | - | - |
| 1777657842 | 17.78° C | 74% | 1018 hPa | 0 mm | - | - | - |
| 1777657240 | 17.22° C | 74% | 1018 hPa | 0 mm | - | - | - |
* Rain latest hour (hover to see other rain measurements)
** Current wind speed in m/s (hover to see current wind gust speed)